FENGYUN 1C DEB

Satellite information

Favourite Embed

Satellite Type and Status

DEBRISIN ORBIT

Key statistics

Satellite FENGYUN 1C DEB at a glance.

Uptime

9665

Days in orbit

Revolutions

≈ 14.2

Per day

Orbit

SSO

Sun Synchronous Orbit

Inclination

99.2

Latest

Satellite identification and parameters

Extended collection of information and parameters for FENGYUN 1C DEB.

Object identification

Identified? True

Debris? True

Object name: FENGYUN 1C DEB

International designator: 1999-025APL

Object number (NORAD): 30654

Object ID (CCSDS): 30654

Country: PEOPLES REPUBLIC OF CHINA (PRC)

Current information (Y/N): Y

RCS size: SMALL

Orbital parameters

Period: 101.638 minutes

Inclination: 99.2363 deg

SMA: 7214.353 km

Apoapsis: 860.223 km

Periapsis: 812.214 km

RAAN: 219.094 deg

Eccentricy: 0.00332733

Argument of periapsis: 238.2732 deg

Mean anomaly: 121.5197 deg

Mean motion: 14.16793823 rev/day

Mean motion (dot): 0.00002702 rev/day2

B* drag term: 0.0013661792 1/REarth

Two-line elements (TLE)

Creation date: Oct. 25, 2025, 3:11 a.m.

Reference frame: TEME

Reference center: EARTH

Epoch: Oct. 24, 2025, 5:44 p.m. UTC

TLE line 0: 0 FENGYUN 1C DEB

TLE line 1: 1 30654U 99025APL 25297.73945756 .00002702 00000-0 13662-2 0 9995

TLE line 2: 2 30654 99.2363 219.0940 0033273 238.2732 121.5197 14.16793823959869

Live tracking on map

Real-time ground track for satellite FENGYUN 1C DEB.

In-orbit conjunctions

A list of the most updated potential collisions computed for object FENGYUN 1C DEB.

Target Orbit TCA Probability of collision Miss distance Type
SL-14 DEB * LEO 2025-05-05 17:18:52 0.0001170143 81.0 (m) DEBRIS
TIROS N SSO 2024-09-24 11:37:45 0.0005396457 331.0 (m) PAYLOAD
CZ-6A DEB SSO 2024-06-05 18:21:16 0.0001012173 75.0 (m) DEBRIS

Associated space launch

Chinese polar orbiting meteorological satellite

FENGYUN 1C DEB was lifted into orbit during the mission ‘Long March 4B | Feng Yun 1C’, on board a Long March 4B space rocket.

The launch took place on May 10, 1999, 1:33 a.m. from Launch Complex 7.

For more information about the launch, click the button.

Launch to space Long March 4B | Feng Yun 1C
Long March 4B | Feng Yun 1C

Agency: N/A

Status: Launch Successful

Launch date: May 10, 1999, 1:33 a.m. UTC

Rocket: Long March 4B

Launch pad: Launch Complex 7

Location: Taiyuan Satellite Launch Center, People's Republic of China

...

Latest news about this satellite

There are no fresh news available about this satellite. Check back as we update our databases every day.


Newsletter sign-up

Weekly statistics, charts and insights to help you stay on top of the space industry.